Wind_Speed
3 1 5 6 4 2 2 2 5 7 6 7 15 18 14 15 15 13 15 14 13 15 17 19 21 23 22 20 26 25 25 27 28 24 21 17 15 17 15 13 12 10 8 9
2 4 7 2 4 4 4 6 12 8 1 8 5 11 9 14 22 20 18 16 17 15 13 19 23 24 26 27 30 26 26 30 28 24 20 16 19 15 15 13 11 11 10 9
4 2 4 3 2 3 3 5 7 9 4 4 3 6 7 8 14 16 15 15 17 19 17 18 25 25 26 28 34 31 30 31 29 26 24 21 19 17 15 14 13 11 10 10
4 2 5 8 7 5 8 5 9 7 6 8 2 10 3 9 16 17 17 19 18 20 19 20 24 25 24 24 28 31 31 31 30 31 25 25 20 18 14 17 16 14 11 10
4 1 2 3 5 5 5 1 3 7 9 3 10 7 3 1 11 18 21 24 26 21 20 22 28 28 25 26 30 31 33 30 30 34 29 25 19 16 19 19 18 15 13 11
6 1 4 6 4 5 1 2 10 1 3 10 15 11 11 7 9 8 21 24 25 25 23 22 30 28 29 26 30 32 34 33 31 34 33 29 25 23 21 22 20 18 16 14
2 6 8 6 13 8 6 7 5 3 2 5 5 7 13 10 15 18 13 20 22 22 20 18 20 30 31 34 34 33 34 33 33 34 35 33 29 27 25 26 24 23 21 19
3 4 5 2 8 4 5 6 4 6 5 6 9 8 5 8 12 12 11 13 15 20 22 25 28 34 35 36 37 36 35 34 33 34 36 34 31 29 27 27 26 24 22 19
4 5 3 5 3 6 4 6 3 7 11 10 8 10 9 11 10 9 8 8 14 18 22 25 26 33 35 34 36 40 37 35 33 36 35 36 35 34 32 29 28 26 23 21
2 7 6 3 4 5 5 7 2 1 5 10 5 6 7 5 9 12 11 11 11 13 17 18 22 30 31 32 33 35 39 42 39 38 39 40 40 37 35 33 32 30 27 24
1 6 7 3 7 13 4 4 3 3 4 6 10 6 6 12 13 11 14 13 11 12 14 16 20 27 30 29 32 36 35 36 36 39 40 39 40 40 39 38 37 36 30 28
4 3 5 15 9 7 11 13 11 6 7 6 5 15 10 16 13 12 16 13 9 12 14 15 18 24 25 29 32 34 34 34 39 39 38 39 37 41 42 40 39 38 34 32
10 4 8 13 5 2 7 7 12 8 5 18 11 12 2 8 11 14 15 15 9 13 14 13 15 20 25 28 29 31 32 37 37 34 36 35 40 42 44 40 38 36 34 34
6 10 16 18 17 5 8 7 11 12 11 15 18 26 15 15 17 17 14 13 11 12 15 14 12 13 24 27 31 31 32 35 33 34 35 36 41 42 36 35 38 39 37 34
6 15 20 23 27 24 17 21 21 21 23 19 26 24 20 17 17 18 18 10 10 13 16 17 17 15 23 25 26 28 29 30 33 32 34 42 39 37 35 40 40 39 35 35
9 13 17 26 29 25 25 30 31 29 28 21 23 27 18 18 15 13 16 11 13 15 17 16 16 14 23 27 29 27 24 24 25 27 35 26 26 27 35 37 38 32 34 40
11 7 8 20 23 18 18 27 26 27 22 22 22 28 17 15 15 17 16 14 15 16 14 14 14 15 18 22 22 23 29 27 32 33 25 25 27 29 32 36 38 38 39 37
19 19 11 13 14 21 21 15 19 18 21 22 23 22 19 18 18 14 12 13 11 11 11 11 11 14 16 21 25 26 26 25 23 25 26 25 27 29 27 29 37 31 34 37
21 16 12 11 18 21 21 19 15 17 27 23 21 21 20 16 4 9 8 5 7 6 5 10 20 13 16 24 20 17 17 18 20 22 23 24 24 24 24 27 31 33 33 36
18 20 14 16 19 29 24 25 21 17 23 22 18 26 20 12 12 10 9 7 8 13 7 10 17 14 13 13 15 15 15 16 16 16 18 20 24 24 26 26 28 28 27 27
10 12 19 21 22 21 16 17 4 15 16 8 12 17 11 11 17 5 10 9 7 12 13 11 14 14 14 15 16 14 11 8 8 10 14 17 19 20 20 21 21 22 23 22
20 12 17 17 22 31 18 24 33 18 16 8 6 8 11 17 7 16 15 11 9 11 16 15 14 13 14 14 15 12 9 6 3 6 9 11 13 15 18 18 18 20 19 21
20 22 18 19 17 11 12 29 30 24 23 10 7 10 9 9 11 15 17 18 14 12 12 13 15 13 9 10 10 10 7 5 4 3 3 4 7 10 12 14 14 15 17 19
13 21 21 27 31 32 30 25 26 29 28 24 12 7 13 9 9 13 11 15 12 14 15 14 14 12 10 9 8 8 7 5 4 3 3 1 3 6 10 12 14 15 17 19
12 9 22 29 29 24 23 31 22 14 18 11 8 9 11 13 16 16 13 13 11 14 14 16 18 18 18 15 16 12 9 8 7 6 3 1 3 6 8 12 14 18 21 25
20 28 18 21 18 20 29 17 22 21 14 9 9 8 12 23 22 17 14 13 16 16 19 19 19 22 18 16 16 14 12 9 8 7 4 3 4 5 7 9 13 18 22 25
Wind_Direction
22 169 227 238 207 178 155 256 280 271 240 214 239 250 250 195 208 203 204 203 206 209 198 194 188 184 181 181 188 184 178 176 171 165 158 158 157 156 155 153 147 140 139 132
41 258 250 130 179 211 231 280 279 293 188 212 233 245 255 206 216 207 204 204 206 205 193 193 192 188 190 186 191 185 183 179 177 176 175 168 164 165 164 160 156 149 145 144
194 237 81 147 196 235 234 243 275 279 311 242 277 249 224 230 232 225 223 211 208 205 197 196 197 196 193 190 190 187 186 185 184 182 179 173 167 165 168 170 166 160 153 150
243 326 239 249 262 199 277 225 258 283 305 292 242 286 246 227 231 224 223 218 214 207 202 203 199 202 199 194 189 186 187 189 189 188 186 184 180 173 185 177 173 166 162 157
232 189 219 240 229 167 253 170 259 280 275 282 242 264 222 223 242 238 230 228 222 208 202 199 199 201 193 195 195 191 190 193 196 194 195 194 191 187 181 179 175 172 171 168
249 303 232 218 221 183 59 331 318 337 245 259 254 243 259 227 225 244 232 231 227 214 207 203 199 199 200 197 193 193 192 196 199 199 200 203 201 193 182 183 181 180 182 183
311 238 251 221 269 249 246 282 302 282 225 275 359 254 264 252 238 238 258 230 227 218 208 200 192 191 192 194 196 195 195 198 200 201 204 207 210 205 199 195 191 187 188 193
257 298 196 155 203 202 187 185 210 271 269 286 318 269 236 252 263 253 246 252 230 213 207 205 199 192 194 192 194 195 197 198 199 202 206 209 212 212 210 208 205 202 201 201
198 248 274 209 151 175 146 203 267 265 264 280 245 268 290 280 275 268 248 229 228 218 213 211 201 196 194 193 199 194 196 199 201 204 206 211 215 215 216 217 218 216 212 206
252 286 232 239 153 223 206 151 193 155 291 285 263 277 256 294 266 266 269 247 238 231 219 211 203 199 197 195 194 201 200 197 202 206 209 214 218 220 222 223 223 222 221 212
300 224 254 147 200 228 179 212 200 256 205 270 294 268 226 255 258 271 275 263 238 217 210 200 196 199 200 193 197 201 202 200 201 207 210 214 218 221 224 229 231 227 222 216
290 250 257 242 227 221 227 240 234 231 233 234 274 271 244 253 255 265 266 273 235 209 201 197 190 191 196 198 199 202 202 204 206 209 210 215 217 223 227 230 232 229 226 221
355 282 310 298 238 147 229 213 229 241 274 258 262 262 249 251 267 268 264 268 221 196 190 186 189 184 194 201 203 206 203 209 209 207 211 213 219 222 227 229 229 228 228 224
332 271 243 256 263 283 263 232 218 218 259 270 245 275 272 272 271 269 265 248 227 199 189 179 203 197 200 204 199 202 207 210 208 208 210 214 221 223 221 224 229 229 226 225
267 262 264 276 279 265 263 272 265 249 251 248 273 271 275 257 256 255 255 247 208 200 196 192 191 201 199 206 208 205 210 209 207 207 210 220 222 224 219 228 231 231 225 227
308 270 280 270 268 271 283 265 259 250 249 253 270 267 259 259 263 256 249 240 214 213 209 206 198 212 196 200 205 204 208 212 210 212 219 222 220 219 223 226 225 223 231 226
274 272 277 270 268 271 272 245 256 258 246 242 247 254 266 251 238 240 245 232 217 210 203 203 200 189 215 209 196 194 207 207 213 214 218 216 213 219 223 225 229 226 222 222
249 248 267 271 290 251 252 241 260 252 243 235 251 266 262 254 245 242 230 215 210 202 187 208 199 181 195 204 208 204 205 208 209 214 219 217 217 216 215 215 225 216 222 223
221 232 245 255 254 276 275 237 239 237 256 247 248 259 252 250 221 244 218 197 176 202 221 209 188 190 206 215 204 197 200 200 207 214 216 215 213 213 209 213 218 217 217 219
216 222 212 237 245 249 257 253 237 268 266 262 246 252 243 213 238 233 184 178 169 142 169 169 115 154 175 187 181 178 183 193 210 217 221 222 224 217 216 220 216 217 218 220
257 222 218 235 243 253 249 288 194 203 252 204 240 248 206 208 234 196 152 157 163 132 154 140 141 142 146 147 153 152 158 178 208 225 227 225 225 226 227 226 218 213 215 216
253 240 232 232 238 248 222 226 236 263 269 260 260 211 193 219 175 163 163 144 142 138 144 147 133 118 126 135 124 118 130 135 155 201 207 215 221 223 225 223 222 221 215 217
254 234 245 226 233 242 207 225 231 236 243 229 229 237 233 189 188 169 164 148 167 164 146 136 131 127 126 124 119 123 125 101 105 144 185 209 223 229 233 225 220 218 219 220
266 263 248 253 253 253 258 254 238 235 236 233 218 187 173 177 188 165 165 139 156 148 148 144 129 115 97 93 96 95 100 88 83 79 60 318 250 247 242 238 233 227 223 223
256 304 274 251 251 262 253 236 234 212 216 206 197 175 184 179 175 157 162 150 145 143 135 134 121 110 100 98 90 91 103 106 100 90 90 134 240 246 246 245 245 243 248 244
248 256 254 261 257 250 248 250 234 227 215 188 153 148 181 176 169 156 152 145 140 134 128 118 114 113 112 103 93 87 86 87 87 83 55 17 339 309 280 270 272 268 262 263
Height
811 814 820 815 818 819 823 828 829 818 810 813 811 808 799 816 819 820 822 825 827 829 833 837 841 844 847 851 855 859 862 864 867 870 872 876 879 880 882 884 884 885 888 888
816 822 809 813 817 821 824 825 819 813 813 814 812 809 806 812 807 808 813 819 822 827 830 834 836 837 839 843 849 855 859 861 865 868 871 873 876 879 881 883 885 884 886 887
820 813 811 812 817 822 823 824 820 821 813 813 815 810 811 805 807 808 808 810 815 816 822 827 831 834 835 838 841 848 855 858 861 865 868 872 875 878 879 881 883 885 885 886
815 810 812 813 818 818 827 812 814 818 820 820 810 808 806 803 799 803 803 803 803 806 811 818 822 827 831 835 839 844 850 854 858 860 865 868 870 873 876 877 879 882 884 886
814 814 815 817 813 813 815 811 814 813 815 820 810 816 793 806 802 793 790 789 788 794 801 807 812 819 826 831 836 841 845 850 854 856 860 865 869 871 872 875 878 880 882 883
811 807 806 803 803 807 807 811 810 819 818 819 799 806 789 792 784 776 771 771 775 780 787 796 804 814 821 826 830 834 838 842 848 851 855 860 863 866 868 871 874 876 878 881
815 810 798 800 808 804 809 820 834 827 828 814 800 805 785 770 766 760 757 761 763 775 781 790 796 802 810 816 821 827 830 836 841 846 850 854 859 862 864 865 868 870 873 875
819 819 805 800 802 804 813 815 831 836 821 809 799 802 779 761 758 757 757 756 758 764 769 773 776 785 795 802 810 817 823 828 833 838 843 849 854 857 859 861 864 865 867 870
820 819 799 799 798 798 813 817 806 818 811 820 796 782 770 756 757 757 755 755 753 754 760 764 773 779 786 795 803 805 814 821 827 830 836 841 846 850 853 857 860 862 865 867
804 813 797 792 794 795 797 798 814 822 825 815 793 794 779 766 761 750 750 750 749 750 755 762 770 775 780 786 794 804 807 808 815 822 827 832 837 842 847 850 853 857 861 864
803 804 796 794 795 792 803 802 805 805 810 811 803 786 765 758 753 753 744 739 743 745 749 755 764 772 777 785 791 795 801 805 809 813 818 824 829 835 840 842 846 849 854 858
806 810 810 793 778 776 778 783 790 807 804 807 804 775 752 749 747 745 741 735 739 741 743 752 758 765 773 779 784 788 793 798 799 804 811 816 823 827 831 834 838 843 847 851
811 812 817 796 787 784 783 783 778 785 790 791 805 768 748 751 749 743 740 733 736 738 741 749 754 756 764 771 776 780 784 788 792 799 804 810 814 816 819 825 830 836 841 844
818 809 807 803 783 783 786 781 778 780 787 778 770 756 752 750 745 736 731 729 733 736 738 742 752 749 755 761 762 769 775 780 786 790 796 801 803 805 813 819 823 825 831 835
809 810 799 790 778 776 781 775 768 770 761 773 745 749 740 736 732 729 721 724 731 733 735 735 736 744 748 756 760 762 767 773 777 782 787 787 794 800 804 808 813 818 822 827
811 803 797 792 776 776 778 759 752 748 746 749 745 737 725 723 722 725 722 723 724 725 724 727 731 737 735 744 749 754 761 768 774 777 777 785 791 794 798 803 805 810 815 814
822 812 806 796 778 778 780 749 743 738 736 736 737 708 716 722 721 716 712 713 712 714 719 722 725 726 735 739 743 749 752 759 762 767 774 778 781 785 790 794 799 801 803 809
804 807 810 795 791 782 735 732 731 726 723 717 711 709 710 707 703 702 703 705 707 711 715 717 720 723 730 733 737 741 747 750 757 762 766 770 772 776 782 786 790 795 798 801
789 795 800 797 779 755 740 720 722 724 713 700 709 703 702 702 709 703 702 702 703 713 711 710 710 716 723 727 731 735 743 748 752 755 758 762 766 771 775 777 780 784 788 790
769 774 782 776 769 742 718 710 709 717 711 692 696 691 692 702 709 693 697 699 701 698 714 717 705 718 725 727 727 734 739 743 746 750 753 757 760 763 766 770 774 778 784 788
764 763 775 765 761 727 719 712 699 726 685 681 679 679 686 699 688 687 694 700 703 700 710 713 714 719 722 724 727 731 735 740 744 747 750 754 756 759 763 767 770 772 776 783
747 751 738 737 737 721 698 709 716 684 679 677 679 680 681 681 690 684 689 698 702 704 708 714 716 716 719 723 723 729 734 738 741 744 747 750 753 756 760 763 766 769 772 776
729 724 715 711 690 678 678 676 672 670 670 673 673 673 674 682 682 682 686 688 701 704 709 711 714 719 724 725 727 732 735 737 740 744 747 749 751 755 758 761 763 765 767 770
711 709 704 703 681 675 669 665 658 657 658 657 660 669 672 676 685 682 689 686 700 704 708 712 716 722 725 727 730 733 735 738 742 745 747 749 751 753 754 757 758 760 761 762
711 712 701 674 664 665 651 651 648 648 647 651 657 657 661 675 678 680 689 690 697 704 710 714 718 722 725 732 735 737 738 741 743 745 747 748 750 750 751 752 753 753 753 753
698 692 693 664 650 647 636 639 635 638 642 644 650 657 660 667 666 675 685 690 697 705 711 716 720 724 731 734 737 740 741 742 743 744 747 747 748 748 749 749 748 748 748 747